Orbital Elements at Epoch 2459200.5 (2020-Dec-17.0) TDB
Reference: JPL 20 (heliocentric ecliptic J2000)
Element | Value | Uncertainty (1-sigma) | Units |
e | .1894486552685309 | 3.2691e-08 | |
a | 2.367164584644312 | 1.0974e-08 | au |
q | 1.918708437284157 | 7.8812e-08 | au |
i | 10.15679821970584 | 3.8036e-06 | deg |
node | 114.1340549450778 | 2.9743e-05 | deg |
peri | 154.3125868314569 | 3.2922e-05 | deg |
M | 53.41218965458554 | 1.5859e-05 | deg |
tp | 2459003.130977350361 (2020-Jun-02.63097735) | 5.806e-05 | TDB |
period | 1330.27401822254 3.64 | 9.2504e-06 2.533e-08 | d yr |
n | .2706209360391912 | 1.8818e-09 | deg/d |
Q | 2.815620732004468 | 1.3053e-08 | au |
|
| | Orbit Determination Parameters
Additional Information
|